Weather History for Mitchell, SD

Change the Weather History Date:

Sunday, October 13, 2013

  Actual Average Record
Temperature  
Mean Temperature 49 °F 51 °F  
Max Temperature 66 °F 64 °F 93 °F (1958)
Min Temperature 31 °F 38 °F 14 °F (1909)
Degree Days  
Heating Degree Days 16 14  
Month to date heating degree days 109 158  
Since 1 July heating degree days 170 316  
Cooling Degree Days 0 0  
Month to date cooling degree days 2 7  
Year to date cooling degree days 946 824  
Moisture  
Dew Point 33 °F    
Average Humidity 62    
Maximum Humidity 96    
Minimum Humidity 28    
Precipitation  
Precipitation 0.00 in 0.06 in 1.98 in (1943)
Month to date precipitation 1.17 0.82  
Year to date precipitation 22.10 19.49  
Snow  
Snow 0.00 in - T in (1969)
Month to date snowfall 0.0  
Since 1 July snowfall 0.0  
Since 1 September snowfall 0.0  
Snow Depth 0.00 in    
Sea Level Pressure  
Sea Level Pressure 30.33 in    
Wind  
Wind Speed 8 mph (SE)    
Max Wind Speed 22 mph    
Max Gust Speed 26 mph    
Visibility 10 miles    
Events      
T = Trace of Precipitation, MM = Missing Value Source: NWS Daily Summary

Daily Weather History Graph

Daily Weather History Graph

Search for Another Location

Airport:

Trip Planner

Search our weather history database for the weather conditions in past years. The results will help you decide how hot, cold, wet, or windy it might be!

Date:

Astronomy

Oct. 13, 2013 Rise Set
Actual Time 7:44 AM CDT 6:51 PM CDT
Civil Twilight 7:15 AM CDT 7:20 PM CDT
Nautical Twilight 6:42 AM CDT 7:53 PM CDT
Astronomical Twilight 6:08 AM CDT 8:26 PM CDT
Moon 3:53 PM CDT (10/13) 1:45 AM CDT (10/13)
Length of Visible Light 12h 04m
Length of Day
11h 07m
Waxing Gibbous, 69% of the Moon is Illuminated
Oct 13
Waxing Gibbous
Oct 18
Full
Oct 26
Last Quarter
Nov 3
New
Nov 9
First Quarter

Hourly Weather History & Observations

Time (CDT) Temp. Windchill Dew Point Humidity Pressure Visibility Wind Dir Wind Speed Gust Speed Precip Events Conditions
12:53 AM 37.9 °F - 30.9 °F 76% 30.30 in 10.0 mi Calm Calm - N/A   Clear
1:53 AM 36.0 °F 33.3 °F 30.0 °F 79% 30.32 in 10.0 mi SW 3.5 mph - N/A   Clear
2:53 AM 35.1 °F - 30.9 °F 85% 30.34 in 10.0 mi Calm Calm - N/A   Clear
3:53 AM 34.0 °F 31.0 °F 32.0 °F 92% 30.34 in 10.0 mi ESE 3.5 mph - N/A   Partly Cloudy
4:53 AM 35.1 °F - 32.0 °F 89% 30.35 in 10.0 mi Calm Calm - N/A   Clear
5:53 AM 34.0 °F - 30.0 °F 85% 30.37 in 10.0 mi Calm Calm - N/A   Clear
6:53 AM 30.9 °F 27.5 °F 28.9 °F 92% 30.39 in 10.0 mi ENE 3.5 mph - N/A   Clear
7:53 AM 32.0 °F - 30.0 °F 92% 30.40 in 10.0 mi Calm Calm - N/A   Mostly Cloudy
8:53 AM 37.0 °F - 33.1 °F 86% 30.42 in 10.0 mi Calm Calm - N/A   Mostly Cloudy
9:53 AM 44.1 °F 41.5 °F 36.0 °F 73% 30.43 in 10.0 mi ESE 4.6 mph - N/A   Mostly Cloudy
10:53 AM 50.0 °F - 37.0 °F 61% 30.43 in 10.0 mi East 5.8 mph - N/A   Clear
11:53 AM 52.0 °F - 35.1 °F 53% 30.42 in 10.0 mi SSE 6.9 mph - N/A   Overcast
12:53 PM 59.0 °F - 35.1 °F 41% 30.38 in 10.0 mi SE 11.5 mph - N/A   Clear
1:53 PM 63.0 °F - 32.0 °F 31% 30.34 in 10.0 mi SE 12.7 mph - N/A   Clear
2:53 PM 64.0 °F - 30.9 °F 29% 30.32 in 10.0 mi SE 13.8 mph - N/A   Mostly Cloudy
3:53 PM 64.0 °F - 32.0 °F 30% 30.30 in 10.0 mi SSE 12.7 mph - N/A   Overcast
4:53 PM 63.0 °F - 33.1 °F 33% 30.28 in 10.0 mi SE 16.1 mph - N/A   Clear
5:53 PM 63.0 °F - 35.1 °F 35% 30.26 in 10.0 mi ESE 12.7 mph 19.6 mph N/A   Scattered Clouds
6:53 PM 59.0 °F - 35.1 °F 41% 30.25 in 10.0 mi ESE 12.7 mph - N/A   Scattered Clouds
7:53 PM 57.0 °F - 34.0 °F 42% 30.27 in 10.0 mi SE 11.5 mph - N/A   Clear
8:53 PM 55.0 °F - 35.1 °F 47% 30.27 in 10.0 mi SE 12.7 mph - N/A   Clear
9:53 PM 55.9 °F - 35.1 °F 45% 30.27 in 10.0 mi SE 11.5 mph - N/A   Overcast
10:53 PM 55.9 °F - 35.1 °F 45% 30.26 in 10.0 mi SE 13.8 mph - N/A   Overcast
11:53 PM 55.9 °F - 35.1 °F 45% 30.25 in 10.0 mi SE 15.0 mph - N/A   Overcast